FW8459 Weather Reports


time (UTC)temp
F
wind
direction
speed
knots
gust
knots
rain 1hr
in
rain 24hr
in
rain mn
in
humidity
%
barometer
mb
20260831144920 40 284 0.0 0.0 0.00 0.00 0.00 96 1029.7
20260831144415 41 258 0.0 0.0 0.00 0.00 0.00 96 1029.7
20260831143915 41 277 0.0 0.0 0.00 0.00 0.00 96 1029.4
20260831143411 41 279 0.0 0.0 0.00 0.00 0.00 95 1029.5
20260831142907 41 286 0.0 0.0 0.00 0.00 0.00 95 1029.7
20260831142402 41 270 0.0 0.0 0.00 0.00 0.00 95 1029.9
20260831141856 41 268 0.0 0.0 0.00 0.00 0.00 95 1029.5
20260831141350 42 285 0.0 0.0 0.00 0.00 0.00 95 1029.8
20260831140845 42 274 0.0 0.0 0.00 0.00 0.00 95 1029.7
20260831140340 42 270 0.0 0.0 0.00 0.00 0.00 95 1029.8
20260831135838 42 275 0.0 0.0 0.00 0.00 0.00 94 1030.1
20260831135333 41 290 0.0 0.0 0.00 0.00 0.00 94 1029.9
20260831134829 42 290 0.0 0.0 0.00 0.00 0.00 94 1029.8
20260831134325 42 277 0.0 0.0 0.00 0.00 0.00 94 1029.8
20260831133824 42 267 0.0 0.0 0.00 0.00 0.00 94 1029.8
20260831133324 42 272 0.0 0.0 0.00 0.00 0.00 93 1029.8
20260831132820 43 293 0.0 0.0 0.00 0.00 0.00 93 1030.0
20260831132315 43 292 0.0 0.0 0.00 0.00 0.00 93 1029.8
20260831131809 44 298 0.0 0.0 0.00 0.00 0.00 93 1030.1
20260831131306 44 298 0.0 0.0 0.00 0.00 0.00 93 1030.0
20260831130805 44 281 0.0 0.0 0.00 0.00 0.00 93 1030.0
20260831130301 44 272 0.0 0.0 0.00 0.00 0.00 93 1030.3
20260831125800 44 258 0.0 0.9 0.00 0.00 0.00 93 1030.1
20260831125255 44 287 0.0 0.0 0.00 0.00 0.00 92 1030.0
20260831124750 44 290 0.0 0.0 0.00 0.00 0.00 92 1030.1
20260831124246 44 297 0.0 0.0 0.00 0.00 0.00 92 1030.3
20260831123741 45 283 0.0 0.0 0.00 0.00 0.00 92 1030.1
20260831123240 45 235 0.9 0.9 0.00 0.00 0.00 92 1030.3
20260831122739 45 241 0.9 0.9 0.00 0.00 0.00 91 1030.1
20260831122235 45 286 0.0 0.0 0.00 0.00 0.00 91 1030.3
20260831121734 45 252 0.0 0.9 0.00 0.00 0.00 91 1030.0
20260831121231 46 305 0.0 0.0 0.00 0.00 0.00 90 1030.0
20260831120726 46 315 0.0 0.0 0.00 0.00 0.00 90 1030.1
20260831120221 46 261 0.0 0.0 0.00 0.00 0.00 89 1030.2
20260831115716 46 290 0.0 0.0 0.00 0.00 0.00 88 1030.0
20260831115213 46 267 0.0 0.0 0.00 0.00 0.00 88 1030.2
20260831114712 47 290 0.0 0.0 0.00 0.00 0.00 88 1030.2
20260831114211 47 262 0.0 0.9 0.00 0.00 0.00 87 1030.3
20260831113707 48 319 0.0 0.0 0.00 0.00 0.00 87 1029.9
20260831113201 48 231 0.9 0.9 0.00 0.00 0.00 87 1030.1
20260831112700 48 243 0.9 1.7 0.00 0.00 0.00 87 1030.0
20260831112156 48 234 0.9 0.9 0.00 0.00 0.00 87 1030.0
20260831111651 48 273 0.0 0.0 0.00 0.00 0.00 86 1030.1
20260831111147 48 245 0.0 0.0 0.00 0.00 0.00 86 1030.2
20260831110643 49 252 0.0 0.9 0.00 0.00 0.00 86 1030.1
20260831110138 49 232 0.9 0.9 0.00 0.00 0.00 87 1030.1
20260831105637 48 227 0.9 0.9 0.00 0.00 0.00 86 1030.1
20260831105132 48 289 0.0 0.0 0.00 0.00 0.00 86 1030.0
20260831104627 48 326 0.0 0.0 0.00 0.00 0.00 85 1029.9
20260831104124 49 261 0.0 0.0 0.00 0.00 0.00 84 1029.8
20260831103618 49 267 0.0 0.0 0.00 0.00 0.00 83 1030.0
20260831103109 49 280 0.0 0.0 0.00 0.00 0.00 82 1030.1
20260831102608 50 277 0.0 0.0 0.00 0.00 0.00 82 1029.9
20260831102103 50 268 0.0 0.0 0.00 0.00 0.00 81 1029.8
20260831101603 51 282 0.0 0.0 0.00 0.00 0.00 81 1030.0
20260831101100 51 266 0.0 0.0 0.00 0.00 0.00 82 1030.2
20260831100555 50 198 0.9 0.9 0.00 0.00 0.00 81 1030.0
20260831100051 51 285 0.0 0.0 0.00 0.00 0.00 81 1029.9
20260831095549 51 283 0.0 0.0 0.00 0.00 0.00 80 1030.0
20260831095044 51 290 0.0 0.0 0.00 0.00 0.00 79 1030.0
20260831094540 51 307 0.0 0.0 0.00 0.00 0.00 79 1029.5
20260831094036 51 306 0.0 0.0 0.00 0.00 0.00 78 1029.7
20260831093531 51 280 0.0 0.0 0.00 0.00 0.00 78 1029.8
20260831093027 51 287 0.0 0.0 0.00 0.00 0.00 76 1029.5
20260831092523 52 300 0.0 0.0 0.00 0.00 0.00 76 1029.8
20260831092019 52 277 0.0 0.0 0.00 0.00 0.00 75 1029.4
20260831091513 52 243 0.0 0.0 0.00 0.00 0.00 74 1029.5
20260831091008 53 283 0.0 0.0 0.00 0.00 0.00 74 1029.7
20260831090504 53 246 0.0 0.0 0.00 0.00 0.00 74 1029.7
20260831090000 53 289 0.0 0.0 0.00 0.00 0.00 72 1029.5
20260831085455 54 260 0.0 0.0 0.00 0.00 0.00 72 1029.4
20260831084954 54 220 0.9 0.9 0.00 0.00 0.00 72 1029.2
20260831084451 54 258 0.0 0.0 0.00 0.00 0.00 71 1029.3
20260831083948 55 269 0.0 0.0 0.00 0.00 0.00 69 1029.3
20260831083442 55 255 0.0 0.9 0.00 0.00 0.00 69 1029.2
20260831082941 56 250 0.9 0.9 0.00 0.00 0.00 68 1029.2
20260831082443 56 259 0.0 0.0 0.00 0.00 0.00 66 1029.2
20260831081937 57 274 0.0 0.0 0.00 0.00 0.00 64 1029.2
20260831081433 58 258 0.0 0.0 0.00 0.00 0.00 64 1029.1
20260831080929 58 250 0.9 0.9 0.00 0.00 0.00 63 1029.1
20260831080423 59 265 0.0 0.0 0.00 0.00 0.00 61 1029.2
20260831075919 60 237 0.0 0.9 0.00 0.00 0.00 61 1029.3
20260831075414 61 247 0.0 0.9 0.00 0.00 0.00 59 1029.2
20260831074909 62 259 0.0 0.0 0.00 0.00 0.00 55 1029.0
20260831074408 63 258 0.0 0.0 0.00 0.00 0.00 52 1029.0
20260831073903 64 253 0.0 0.0 0.00 0.00 0.00 51 1028.9
20260831073402 64 254 0.0 0.0 0.00 0.00 0.00 49 1028.9
20260831072857 65 257 0.0 0.0 0.00 0.00 0.00 48 1028.9
20260831072353 66 198 0.9 0.9 0.00 0.00 0.00 47 1028.9
20260831071849 66 246 0.0 0.9 0.00 0.00 0.00 46 1028.7
20260831071348 66 233 0.9 0.9 0.00 0.00 0.00 46 1028.7
20260831070843 66 261 0.0 0.0 0.00 0.00 0.00 46 1028.8
20260831070342 66 248 0.9 0.9 0.00 0.00 0.00 46 1028.8
20260831065842 66 165 0.9 0.9 0.00 0.00 0.00 45 1028.8
20260831065339 67 235 0.9 0.9 0.00 0.00 0.00 45 1029.0
20260831064835 67 223 0.9 1.7 0.00 0.00 0.00 45 1028.8
20260831064330 67 309 0.0 0.0 0.00 0.00 0.00 44 1028.9
20260831063826 67 286 0.0 0.0 0.00 0.00 0.00 44 1028.8
20260831063326 67 244 1.7 1.7 0.00 0.00 0.00 43 1028.9
20260831062821 68 311 0.0 0.0 0.00 0.00 0.00 43 1028.6
20260831062316 68 238 0.9 1.7 0.00 0.00 0.00 43 1028.8
20260831061815 68 300 0.9 1.7 0.00 0.00 0.00 46 1028.7
20260831061314 68 228 1.7 1.7 0.00 0.00 0.00 44 1028.7
20260831060811 68 21 0.0 0.9 0.00 0.00 0.00 45 1028.6
20260831060310 68 317 0.9 0.9 0.00 0.00 0.00 45 1028.6
20260831055810 68 358 1.7 1.7 0.00 0.00 0.00 45 1028.6
20260831055306 68 27 0.0 0.0 0.00 0.00 0.00 45 1028.6
20260831054800 69 324 0.0 0.0 0.00 0.00 0.00 42 1028.9
20260831054255 69 279 0.9 1.7 0.00 0.00 0.00 42 1028.8
20260831053754 69 231 0.9 0.9 0.00 0.00 0.00 42 1028.7
20260831053253 69 14 0.9 0.9 0.00 0.00 0.00 43 1029.0
20260831052747 69 85 2.6 4.3 0.00 0.00 0.00 41 1028.9
20260831052247 69 331 0.0 0.0 0.00 0.00 0.00 43 1028.9
20260831051744 69 346 1.7 1.7 0.00 0.00 0.00 42 1028.8
20260831051244 70 344 1.7 1.7 0.00 0.00 0.00 42 1028.7
20260831050739 70 38 2.6 2.6 0.00 0.00 0.00 42 1028.9
20260831050237 71 324 0.9 0.9 0.00 0.00 0.00 40 1028.9
20260831045732 71 319 0.9 0.9 0.00 0.00 0.00 38 1029.0
20260831045227 71 311 0.9 0.9 0.00 0.00 0.00 39 1029.0
20260831044722 71 317 0.9 0.9 0.00 0.00 0.00 40 1028.8
20260831044217 71 326 0.9 0.9 0.00 0.00 0.00 43 1029.2
20260831043713 72 205 2.6 2.6 0.00 0.00 0.00 42 1029.1
20260831043208 71 327 0.9 0.9 0.00 0.00 0.00 41 1029.1
20260831042707 70 53 0.9 0.9 0.00 0.00 0.00 43 1029.2
20260831042202 72 298 0.0 0.9 0.00 0.00 0.00 43 1029.1
20260831041657 70 308 0.0 0.0 0.00 0.00 0.00 44 1029.4
20260831041156 71 0 1.7 1.7 0.00 0.00 0.00 48 1029.1
20260831040652 70 40 0.9 1.7 0.00 0.00 0.00 46 1029.3
20260831040150 72 57 2.6 2.6 0.00 0.00 0.00 45 1029.2
20260831035649 73 356 0.9 0.9 0.00 0.00 0.00 45 1029.5
20260831035144 72 293 0.9 1.7 0.00 0.00 0.00 45 1029.2
20260831034642 71 312 0.0 0.0 0.00 0.00 0.00 45 1029.7
20260831034138 71 0 2.6 2.6 0.00 0.00 0.00 46 1029.7
20260831033634 72 339 4.3 7.0 0.00 0.00 0.00 44 1029.5
20260831033129 72 25 0.9 1.7 0.00 0.00 0.00 44 1029.7
20260831032628 72 295 0.0 0.9 0.00 0.00 0.00 43 1029.9
20260831032125 73 308 0.9 0.9 0.00 0.00 0.00 41 1029.9
20260831031624 74 305 0.9 1.7 0.00 0.00 0.00 41 1030.0
20260831031124 73 349 0.9 0.9 0.00 0.00 0.00 40 1030.1
20260831030622 72 326 0.0 0.9 0.00 0.00 0.00 43 1030.1
20260831030122 72 281 0.9 1.7 0.00 0.00 0.00 44 1030.4
20260831025620 71 230 0.9 1.7 0.00 0.00 0.00 42 1030.4
20260831025115 71 310 0.9 0.9 0.00 0.00 0.00 43 1030.5
20260831024612 71 201 0.9 0.9 0.00 0.00 0.00 45 1030.5
20260831024110 73 297 0.9 1.7 0.00 0.00 0.00 43 1030.6
20260831023609 73 326 0.9 1.7 0.00 0.00 0.00 45 1030.7
20260831023108 72 240 1.7 1.7 0.00 0.00 0.00 46 1030.8
20260831022603 72 54 0.0 0.9 0.00 0.00 0.00 51 1030.7
20260831022058 72 325 0.9 0.9 0.00 0.00 0.00 50 1030.9
20260831021557 71 261 0.0 0.9 0.00 0.00 0.00 51 1031.2
20260831021053 70 253 0.9 0.9 0.00 0.00 0.00 50 1031.2
20260831020548 71 309 0.9 0.9 0.00 0.00 0.00 49 1031.2
20260831020043 72 316 0.0 0.0 0.00 0.00 0.00 53 1031.3
20260831015539 71 283 0.0 0.9 0.00 0.00 0.00 52 1031.4
20260831015033 69 297 0.0 0.0 0.00 0.00 0.00 55 1031.7
20260831014528 70 220 1.7 1.7 0.00 0.00 0.00 50 1031.8
20260831014024 70 343 0.9 0.9 0.00 0.00 0.00 53 1031.9
20260831013519 69 260 0.0 0.9 0.00 0.00 0.00 54 1031.9
20260831013014 68 199 1.7 1.7 0.00 0.00 0.00 54 1031.9
20260831012509 68 335 0.0 0.9 0.00 0.00 0.00 56 1032.1
20260831012008 67 63 0.9 0.9 0.00 0.00 0.00 56 1032.0
20260831011503 66 106 1.7 1.7 0.00 0.00 0.00 58 1032.4
20260831010959 68 10 1.7 1.7 0.00 0.00 0.00 57 1032.5
20260831010458 66 321 0.0 0.0 0.00 0.00 0.00 59 1032.5
20260831005949 66 39 0.9 0.9 0.00 0.00 0.00 58 1032.5
20260831005445 65 245 0.9 0.9 0.00 0.00 0.00 59 1032.4
20260831004944 68 316 0.9 1.7 0.00 0.00 0.00 55 1032.5
20260831004440 66 343 0.0 0.0 0.00 0.00 0.00 58 1032.8
20260831003936 65 101 0.9 0.9 0.00 0.00 0.00 57 1032.3
20260831003431 66 6 0.9 1.7 0.00 0.00 0.00 54 1032.6
20260831002931 66 10 0.0 0.9 0.00 0.00 0.00 55 1032.8
20260831002430 64 347 0.9 0.9 0.00 0.00 0.00 57 1032.5
20260831001926 63 22 0.9 0.9 0.00 0.00 0.00 59 1032.5
20260831001421 62 11 1.7 1.7 0.00 0.00 0.00 61 1033.0
20260831000918 62 15 1.7 1.7 0.00 0.00 0.00 60 1032.8
20260831000413 60 306 0.9 0.9 0.00 0.00 0.00 62 1032.8
20260830235912 61 327 0.0 0.0 0.00 0.00 0.00 60 1032.8
20260830235407 60 232 1.7 1.7 0.00 0.00 0.00 60 1033.0
20260830234902 60 227 1.7 1.7 0.00 0.00 0.00 62 1032.9
20260830234357 60 255 0.9 0.9 0.00 0.00 0.00 61 1033.1
20260830233853 60 256 0.9 0.9 0.00 0.00 0.00 64 1032.9
20260830233348 58 53 0.0 0.9 0.00 0.00 0.00 65 1033.2
20260830232844 58 1 0.9 0.9 0.00 0.00 0.00 67 1033.2
20260830232339 58 339 0.0 0.0 0.00 0.00 0.00 66 1033.1
20260830231836 57 2 0.0 0.0 0.00 0.00 0.00 68 1033.1
20260830231331 55 311 0.0 0.9 0.00 0.00 0.00 71 1033.1
20260830230830 55 32 0.9 0.9 0.00 0.00 0.00 70 1033.1
20260830230326 55 8 0.9 0.9 0.00 0.00 0.00 70 1033.2
20260830225826 55 4 0.0 0.0 0.00 0.00 0.00 71 1033.1
20260830225320 55 54 0.9 1.7 0.00 0.00 0.00 70 1033.2
20260830224815 55 331 0.0 0.0 0.00 0.00 0.00 70 1033.2
20260830224309 53 336 0.0 0.9 0.00 0.00 0.00 70 1033.2
20260830223806 54 283 0.0 0.9 0.00 0.00 0.00 71 1033.4
20260830223302 52 5 0.0 0.0 0.00 0.00 0.00 76 1033.1
20260830222801 51 349 0.0 0.0 0.00 0.00 0.00 76 1033.3
20260830222257 51 33 0.0 0.0 0.00 0.00 0.00 75 1033.1
20260830221752 51 17 0.9 0.9 0.00 0.00 0.00 77 1033.4
20260830221249 49 6 0.0 0.9 0.00 0.00 0.00 79 1033.2
20260830220744 49 339 0.0 0.9 0.00 0.00 0.00 81 1033.5
20260830220243 48 318 0.0 0.0 0.00 0.00 0.00 84 1033.4
20260830215741 47 0 0.0 0.0 0.00 0.00 0.00 89 1033.4
20260830215236 46 57 0.0 0.0 0.00 0.00 0.00 92 1033.3
20260830214731 45 325 0.0 0.9 0.00 0.00 0.00 98 1033.0
20260830214231 45 298 0.0 0.9 0.00 0.00 0.00 99 1033.1
20260830213730 44 89 0.9 0.9 0.00 0.00 0.00 99 1032.9
20260830213226 42 67 0.0 0.9 0.00 0.00 0.00 99 1033.1
20260830212721 40 317 0.0 0.0 0.00 0.00 0.00 99 1032.9
20260830212217 39 254 0.0 0.9 0.00 0.00 0.00 99 1032.9
20260830211712 38 289 0.0 0.0 0.00 0.00 0.00 99 1032.8
20260830211210 38 290 0.0 0.0 0.00 0.00 0.00 99 1032.6
20260830210707 38 274 0.0 0.0 0.00 0.00 0.00 99 1032.8
20260830210206 37 291 0.0 0.0 0.00 0.00 0.00 99 1032.6
20260830205703 36 288 0.0 0.0 0.00 0.00 0.00 99 1032.5
20260830205158 35 293 0.0 0.0 0.00 0.00 0.00 99 1032.4
20260830204658 35 285 0.0 0.0 0.00 0.00 0.00 99 1032.3
20260830204157 35 296 0.0 0.0 0.00 0.00 0.00 99 1032.3
20260830203653 34 289 0.0 0.0 0.00 0.00 0.00 99 1032.3
20260830203149 34 294 0.0 0.0 0.00 0.00 0.00 99 1032.1
20260830202648 35 292 0.0 0.0 0.00 0.00 0.00 99 1032.0
20260830202143 35 284 0.0 0.0 0.00 0.00 0.00 99 1031.9
20260830201643 35 279 0.0 0.0 0.00 0.00 0.00 99 1032.0
20260830201138 35 279 0.0 0.0 0.00 0.00 0.00 99 1032.0
20260830200634 36 277 0.0 0.0 0.00 0.00 0.00 99 1032.0
20260830200133 36 212 0.0 0.9 0.00 0.00 0.00 99 1031.8
20260830195628 34 262 0.0 0.0 0.00 0.00 0.00 99 1031.8
20260830195121 34 289 0.0 0.0 0.00 0.00 0.00 99 1031.7
20260830194620 34 289 0.0 0.0 0.00 0.00 0.00 99 1031.8
20260830194115 34 289 0.0 0.0 0.00 0.00 0.00 99 1031.7
20260830193614 35 289 0.0 0.0 0.00 0.00 0.00 99 1031.5
20260830193109 35 286 0.0 0.0 0.00 0.00 0.00 99 1031.4
20260830192605 35 282 0.0 0.0 0.00 0.00 0.00 99 1031.5
20260830192105 35 285 0.0 0.0 0.00 0.00 0.00 99 1031.4
20260830191600 35 272 0.0 0.0 0.00 0.00 0.00 99 1031.5
20260830191056 35 258 0.0 0.0 0.00 0.00 0.00 99 1031.4
20260830190551 35 279 0.0 0.0 0.00 0.00 0.00 99 1031.4
20260830190046 35 270 0.0 0.0 0.00 0.00 0.00 99 1031.6
20260830185539 36 292 0.0 0.0 0.00 0.00 0.00 99 1031.3
20260830185035 36 284 0.0 0.0 0.00 0.00 0.00 99 1031.4
20260830184534 35 282 0.0 0.0 0.00 0.00 0.00 99 1031.2
20260830184028 35 289 0.0 0.0 0.00 0.00 0.00 98 1031.4
20260830183523 36 289 0.0 0.0 0.00 0.00 0.00 98 1031.2
20260830183019 35 289 0.0 0.0 0.00 0.00 0.00 99 1031.0
20260830182514 35 294 0.0 0.0 0.00 0.00 0.00 99 1031.0
20260830182010 35 289 0.0 0.0 0.00 0.00 0.00 98 1031.3
20260830181506 36 289 0.0 0.0 0.00 0.00 0.00 98 1031.5
20260830181006 36 289 0.0 0.0 0.00 0.00 0.00 98 1031.3
20260830180500 36 289 0.0 0.0 0.00 0.00 0.00 98 1031.4
20260830175958 36 289 0.0 0.0 0.00 0.00 0.00 98 1031.5
20260830175458 36 289 0.0 0.0 0.00 0.00 0.00 98 1031.0
20260830174953 36 289 0.0 0.0 0.00 0.00 0.00 98 1031.4
20260830174449 36 285 0.0 0.0 0.00 0.00 0.00 98 1031.2
20260830173944 36 285 0.0 0.0 0.00 0.00 0.00 98 1031.3
20260830173440 36 279 0.0 0.0 0.00 0.00 0.00 98 1031.2
20260830172935 37 290 0.0 0.0 0.00 0.00 0.00 98 1031.4
20260830172432 37 289 0.0 0.0 0.00 0.00 0.00 98 1031.2
20260830171927 37 285 0.0 0.0 0.00 0.00 0.00 98 1031.3
20260830171422 37 282 0.0 0.0 0.00 0.00 0.00 98 1031.4
20260830170922 37 283 0.0 0.0 0.00 0.00 0.00 98 1031.3
20260830170417 38 278 0.0 0.0 0.00 0.00 0.00 98 1031.0
20260830165915 38 273 0.0 0.0 0.00 0.00 0.00 98 1031.4
20260830165411 38 265 0.0 0.0 0.00 0.00 0.00 98 1031.2
20260830164907 38 281 0.0 0.0 0.00 0.00 0.00 97 1031.3
20260830164403 38 284 0.0 0.0 0.00 0.00 0.00 97 1031.2
20260830163859 38 284 0.0 0.0 0.00 0.00 0.00 97 1031.4
20260830163356 38 282 0.0 0.0 0.00 0.00 0.00 97 1031.3
20260830162849 38 276 0.0 0.0 0.00 0.00 0.00 97 1031.5
20260830162345 38 292 0.0 0.0 0.00 0.00 0.00 97 1031.2
20260830161845 38 291 0.0 0.0 0.00 0.00 0.00 97 1031.4
20260830161344 38 275 0.0 0.0 0.00 0.00 0.00 97 1031.4
20260830160840 39 285 0.0 0.0 0.00 0.00 0.00 97 1031.4
20260830160335 39 281 0.0 0.0 0.00 0.00 0.00 97 1031.3
20260830155831 39 281 0.0 0.0 0.00 0.00 0.00 97 1031.6
20260830155327 39 283 0.0 0.0 0.00 0.00 0.00 97 1031.3
20260830154822 39 291 0.0 0.0 0.00 0.00 0.00 97 1031.4
20260830154317 39 281 0.0 0.0 0.00 0.00 0.00 97 1031.5
20260830153814 39 288 0.0 0.0 0.00 0.00 0.00 96 1031.6
20260830153309 39 256 0.0 0.0 0.00 0.00 0.00 96 1031.6
20260830152808 40 285 0.0 0.0 0.00 0.00 0.00 96 1031.2
20260830152305 40 277 0.0 0.0 0.00 0.00 0.00 96 1031.5
20260830151803 39 273 0.0 0.0 0.00 0.00 0.00 96 1031.2
20260830151302 39 293 0.0 0.0 0.00 0.00 0.00 96 1031.3
20260830150757 40 287 0.0 0.0 0.00 0.00 0.00 96 1031.3
20260830150256 40 275 0.0 0.0 0.00 0.00 0.00 96 1031.4
20260830145751 40 285 0.0 0.0 0.00 0.00 0.00 96 1031.5
20260830145247 40 277 0.0 0.0 0.00 0.00 0.00 96 1031.7